| time (UTC) | temp F | wind direction | speed knots | gust knots | rain 1hr in | rain 24hr in | rain mn in | humidity % | barometer mb |
| 20260831221605 | 77 | 242 | 6.1 | 12.2 | 0.00 | 0.00 | 0.00 | 72 | 1014.1 |
| 20260831220100 | 77 | 281 | 5.2 | 12.2 | 0.00 | 0.00 | 0.00 | 71 | 1014.2 |
| 20260831214603 | 77 | 291 | 5.2 | 13.0 | 0.00 | 0.00 | 0.00 | 72 | 1014.0 |
| 20260831213101 | 77 | 360 | 6.1 | 11.3 | 0.00 | 0.00 | 0.00 | 71 | 1014.0 |
| 20260831211616 | 78 | 227 | 5.2 | 12.2 | 0.00 | 0.00 | 0.00 | 70 | 1014.2 |
| 20260831210110 | 78 | 360 | 6.1 | 10.4 | 0.00 | 0.00 | 0.00 | 70 | 1014.2 |
| 20260831204606 | 78 | 228 | 4.3 | 9.6 | 0.00 | 0.00 | 0.00 | 71 | 1014.5 |
| 20260831203102 | 78 | 291 | 5.2 | 9.6 | 0.00 | 0.00 | 0.00 | 70 | 1014.4 |
| 20260831201611 | 78 | 207 | 3.5 | 8.7 | 0.00 | 0.00 | 0.00 | 70 | 1014.5 |
| 20260831200107 | 78 | 204 | 3.5 | 9.6 | 0.00 | 0.00 | 0.00 | 70 | 1014.5 |
| 20260831194642 | 78 | 237 | 5.2 | 9.6 | 0.00 | 0.00 | 0.00 | 70 | 1014.5 |
| 20260831193100 | 78 | 242 | 4.3 | 9.6 | 0.00 | 0.00 | 0.00 | 71 | 1014.6 |
| 20260831191608 | 79 | 186 | 3.5 | 9.6 | 0.00 | 0.00 | 0.00 | 69 | 1014.7 |
| 20260831190108 | 79 | 198 | 3.5 | 9.6 | 0.00 | 0.00 | 0.00 | 69 | 1014.8 |
| 20260831184601 | 78 | 185 | 2.6 | 9.6 | 0.00 | 0.00 | 0.00 | 70 | 1014.9 |
| 20260831183104 | 79 | 241 | 4.3 | 10.4 | 0.00 | 0.00 | 0.00 | 70 | 1014.8 |
| 20260831181555 | 78 | 360 | 4.3 | 8.7 | 0.00 | 0.00 | 0.00 | 71 | 1015.0 |
| 20260831180107 | 77 | 277 | 3.5 | 8.7 | 0.00 | 0.00 | 0.00 | 71 | 1014.8 |
| 20260831174601 | 77 | 225 | 3.5 | 7.8 | 0.00 | 0.00 | 0.00 | 71 | 1014.6 |
| 20260831173057 | 77 | 360 | 4.3 | 8.7 | 0.00 | 0.00 | 0.00 | 71 | 1014.5 |
| 20260831171600 | 79 | 180 | 3.5 | 8.7 | 0.00 | 0.00 | 0.00 | 67 | 1014.4 |
| 20260831170105 | 78 | 360 | 2.6 | 7.8 | 0.00 | 0.00 | 0.00 | 69 | 1014.5 |
| 20260831164601 | 79 | 178 | 0.9 | 5.2 | 0.00 | 0.00 | 0.00 | 68 | 1014.5 |
| 20260831163058 | 79 | 188 | 0.9 | 7.0 | 0.00 | 0.00 | 0.00 | 67 | 1014.4 |
| 20260831161553 | 79 | 121 | 3.5 | 7.0 | 0.00 | 0.00 | 0.00 | 65 | 1014.4 |
| 20260831160059 | 79 | 153 | 1.7 | 6.1 | 0.00 | 0.00 | 0.00 | 66 | 1014.4 |
| 20260831154617 | 76 | 108 | 1.7 | 5.2 | 0.00 | 0.00 | 0.00 | 73 | 1014.4 |
| 20260831153114 | 74 | 150 | 0.0 | 1.7 | 0.00 | 0.00 | 0.00 | 75 | 1014.3 |
| 20260831151605 | 73 | 150 | 0.0 | 1.7 | 0.00 | 0.00 | 0.00 | 76 | 1014.3 |
| 20260831150059 | 72 | 0 | 0.0 | 1.7 | 0.00 | 0.00 | 0.00 | 78 | 1014.2 |
| 20260831144630 | 71 | 0 | 0.0 | 0.9 | 0.00 | 0.00 | 0.00 | 79 | 1014.1 |
| 20260831143104 | 70 | 0 | 0.0 | 1.7 | 0.00 | 0.00 | 0.00 | 80 | 1014.1 |
| 20260831141557 | 70 | 150 | 0.0 | 1.7 | 0.00 | 0.00 | 0.00 | 81 | 1013.8 |
| 20260831140055 | 70 | 0 | 0.0 | 0.0 | 0.00 | 0.00 | 0.00 | 81 | 1013.7 |
| 20260831134600 | 70 | 0 | 0.0 | 0.9 | 0.00 | 0.00 | 0.00 | 81 | 1013.4 |
| 20260831133102 | 70 | 0 | 0.0 | 0.9 | 0.00 | 0.00 | 0.00 | 81 | 1013.2 |
| 20260831131603 | 70 | 0 | 0.0 | 0.9 | 0.00 | 0.00 | 0.00 | 81 | 1013.1 |
| 20260831130109 | 70 | 150 | 0.9 | 1.7 | 0.00 | 0.00 | 0.00 | 81 | 1013.2 |
| 20260831124603 | 70 | 150 | 0.9 | 2.6 | 0.00 | 0.00 | 0.00 | 81 | 1013.0 |
| 20260831123058 | 70 | 149 | 0.9 | 5.2 | 0.00 | 0.00 | 0.00 | 81 | 1013.1 |
| 20260831121603 | 70 | 148 | 1.7 | 4.3 | 0.00 | 0.00 | 0.00 | 82 | 1013.0 |
| 20260831120100 | 70 | 0 | 0.9 | 2.6 | 0.00 | 0.00 | 0.00 | 82 | 1013.1 |
| 20260831114600 | 70 | 150 | 0.0 | 1.7 | 0.00 | 0.00 | 0.00 | 82 | 1013.0 |
| 20260831113110 | 70 | 150 | 0.0 | 5.2 | 0.00 | 0.00 | 0.00 | 83 | 1013.0 |
| 20260831111604 | 69 | 84 | 1.7 | 4.3 | 0.00 | 0.00 | 0.00 | 85 | 1013.1 |
| 20260831110059 | 69 | 92 | 0.9 | 3.5 | 0.00 | 0.00 | 0.00 | 85 | 1013.1 |
| 20260831104603 | 69 | 92 | 0.9 | 3.5 | 0.00 | 0.00 | 0.00 | 86 | 1013.2 |
| 20260831103058 | 69 | 92 | 0.0 | 3.5 | 0.00 | 0.00 | 0.00 | 85 | 1013.1 |
| 20260831101555 | 69 | 131 | 1.7 | 4.3 | 0.00 | 0.00 | 0.00 | 85 | 1013.2 |
| 20260831100122 | 70 | 213 | 0.9 | 4.3 | 0.00 | 0.00 | 0.00 | 86 | 1013.2 |
| 20260831094556 | 69 | 161 | 2.6 | 4.3 | 0.00 | 0.00 | 0.00 | 86 | 1013.1 |
| 20260831093101 | 69 | 164 | 0.9 | 3.5 | 0.00 | 0.00 | 0.00 | 86 | 1013.1 |
| 20260831091603 | 69 | 165 | 0.9 | 1.7 | 0.00 | 0.00 | 0.00 | 87 | 1013.1 |
| 20260831090056 | 69 | 165 | 0.9 | 1.7 | 0.00 | 0.00 | 0.00 | 87 | 1013.1 |
| 20260831084634 | 69 | 165 | 0.9 | 4.3 | 0.00 | 0.00 | 0.00 | 87 | 1013.3 |
| 20260831083104 | 69 | 166 | 1.7 | 3.5 | 0.00 | 0.00 | 0.00 | 87 | 1013.1 |
| 20260831081601 | 70 | 166 | 1.7 | 4.3 | 0.00 | 0.00 | 0.00 | 86 | 1013.2 |
| 20260831080128 | 70 | 167 | 1.7 | 3.5 | 0.00 | 0.00 | 0.00 | 86 | 1013.3 |
| 20260831074609 | 70 | 167 | 1.7 | 3.5 | 0.00 | 0.00 | 0.00 | 86 | 1013.4 |
| 20260831073105 | 69 | 167 | 2.6 | 4.3 | 0.00 | 0.00 | 0.00 | 87 | 1013.3 |
| 20260831071608 | 69 | 238 | 1.7 | 3.5 | 0.00 | 0.00 | 0.00 | 87 | 1013.3 |
| 20260831070106 | 69 | 242 | 1.7 | 3.5 | 0.00 | 0.00 | 0.00 | 86 | 1013.2 |
| 20260831064604 | 69 | 242 | 0.9 | 2.6 | 0.00 | 0.00 | 0.00 | 86 | 1013.3 |
| 20260831063112 | 70 | 242 | 0.9 | 2.6 | 0.00 | 0.00 | 0.00 | 86 | 1013.1 |
| 20260831061557 | 70 | 242 | 0.9 | 1.7 | 0.00 | 0.00 | 0.00 | 86 | 1013.0 |
| 20260831060105 | 70 | 0 | 0.9 | 2.6 | 0.00 | 0.00 | 0.00 | 86 | 1013.1 |
| 20260831054601 | 70 | 244 | 0.9 | 2.6 | 0.00 | 0.00 | 0.00 | 85 | 1013.1 |
| 20260831053124 | 70 | 244 | 0.9 | 2.6 | 0.00 | 0.00 | 0.00 | 86 | 1013.2 |
| 20260831051554 | 70 | 246 | 0.0 | 1.7 | 0.00 | 0.00 | 0.00 | 85 | 1013.1 |
| 20260831050117 | 70 | 0 | 0.0 | 0.9 | 0.00 | 0.00 | 0.00 | 84 | 1013.1 |
| 20260831044600 | 71 | 246 | 0.0 | 1.7 | 0.00 | 0.00 | 0.00 | 84 | 1013.0 |
| 20260831043056 | 71 | 246 | 0.0 | 2.6 | 0.00 | 0.00 | 0.00 | 84 | 1012.9 |
| 20260831041620 | 71 | 245 | 0.9 | 3.5 | 0.00 | 0.00 | 0.00 | 83 | 1012.8 |
| 20260831034559 | 72 | 244 | 1.7 | 6.1 | 0.00 | 0.00 | 0.00 | 83 | 1012.5 |
| 20260831033113 | 72 | 236 | 0.9 | 4.3 | 0.00 | 0.00 | 0.00 | 83 | 1012.4 |
| 20260831031558 | 72 | 234 | 2.6 | 6.1 | 0.00 | 0.00 | 0.00 | 82 | 1012.1 |
| 20260831024606 | 73 | 223 | 1.7 | 5.2 | 0.00 | 0.00 | 0.00 | 82 | 1012.1 |
| 20260831023059 | 73 | 230 | 1.7 | 3.5 | 0.00 | 0.00 | 0.00 | 81 | 1011.9 |
| 20260831021558 | 74 | 264 | 0.9 | 4.3 | 0.00 | 0.00 | 0.00 | 81 | 1011.7 |
| 20260831020056 | 74 | 233 | 1.7 | 6.1 | 0.00 | 0.00 | 0.00 | 80 | 1011.6 |
| 20260831014604 | 74 | 244 | 0.9 | 7.0 | 0.00 | 0.00 | 0.00 | 81 | 1011.6 |
| 20260831013059 | 75 | 246 | 1.7 | 7.0 | 0.00 | 0.00 | 0.00 | 80 | 1011.5 |
| 20260831011558 | 76 | 247 | 3.5 | 7.8 | 0.00 | 0.00 | 0.00 | 78 | 1011.6 |
| 20260831010113 | 77 | 241 | 2.6 | 8.7 | 0.00 | 0.00 | 0.00 | 75 | 1011.7 |
| 20260831004606 | 77 | 237 | 2.6 | 8.7 | 0.00 | 0.00 | 0.00 | 74 | 1011.6 |
| 20260831003107 | 78 | 360 | 3.5 | 7.8 | 0.00 | 0.00 | 0.00 | 74 | 1011.8 |
| 20260831001604 | 78 | 360 | 4.3 | 9.6 | 0.00 | 0.00 | 0.00 | 74 | 1011.8 |
| 20260830234606 | 78 | 220 | 3.5 | 11.3 | 0.00 | 0.00 | 0.00 | 72 | 1011.7 |
| 20260830233104 | 79 | 252 | 5.2 | 9.6 | 0.00 | 0.00 | 0.00 | 71 | 1011.8 |
| 20260830231611 | 80 | 360 | 4.3 | 8.7 | 0.00 | 0.00 | 0.00 | 71 | 1011.9 |
| 20260830230058 | 80 | 253 | 3.5 | 9.6 | 0.00 | 0.00 | 0.00 | 72 | 1011.8 |
| 20260830224607 | 80 | 228 | 3.5 | 8.7 | 0.00 | 0.00 | 0.00 | 70 | 1012.0 |
| 20260830223107 | 79 | 244 | 5.2 | 11.3 | 0.00 | 0.00 | 0.00 | 72 | 1012.2 |